[[{"header":{"parameterUnit":"m.s-1","parameterCategory":1,"la1":30.2991,"la2":30.254,"lo1":-89.0895,"lo2":-89.0444,"dx":0.0017,"dy":0.0017,"nx":28,"ny":28,"refTime":"2022-11-08T09:00:00:Z","depth":0,"parameterNumber":2,"parameterNumberName":"U-component_of_WINDS"},"data":[0,0,0,0,0,0,0,0,0,0,0,0,0,0,0,0,0,0,0,0,0,0,0,0,0,0,0,0,0,0,0,0,0,0,0,0,0,0,0,0,0,0,0,0,0,0,0,0,0,0,0,0,0,0,0,0,0,0,-2.742,-2.742,0,-2.7481,-2.7482,-2.7483,-2.7405,-2.7402,-2.7399,-2.7396,-2.7461,-2.7465,-2.747,0,0,0,0,0,0,0,0,0,0,0,0,0,-2.7237,-2.7241,-2.742,-2.742,-2.7421,-2.7481,-2.7482,-2.7483,-2.7405,-2.7402,-2.7398,-2.7395,-2.746,-2.7465,-2.747,0,0,0,0,0,0,0,0,0,0,0,0,0,-2.7309,-2.7242,-2.742,-2.739,-2.7388,-2.7481,-2.7482,-2.7483,-2.7406,-2.7401,-2.7397,-2.7393,-2.7458,-2.7464,-2.7471,-2.7597,0,0,-2.7491,-2.7494,0,0,0,0,0,0,0,0,-2.7305,-2.7316,-2.7393,-2.7392,-2.739,-2.7431,-2.7441,-2.7521,-2.7407,-2.7399,-2.7396,-2.7391,-2.7455,-2.7461,-2.7482,-2.76,-2.7603,-2.7492,-2.7496,-2.7498,-2.75,0,0,0,0,0,0,0,-2.73,-2.7313,-2.7444,-2.7395,-2.7392,-2.7374,-2.7379,-2.7456,-2.745,-2.7399,-2.7394,-2.7402,-2.7453,-2.7476,-2.7483,-2.7604,-2.7491,-2.7497,-2.7501,-2.7504,-2.783,-2.7834,0,0,0,0,0,0,-2.7299,-2.7309,-2.7442,-2.7446,-2.7336,-2.7381,-2.7387,-2.7422,-2.7449,-2.7449,-2.7406,-2.7398,-2.7467,-2.7476,-2.7485,-2.7636,-2.7498,-2.7504,-2.7508,-2.7825,-2.7831,-2.7836,0,0,0,0,0,0,-2.7295,-2.7311,-2.744,-2.7376,-2.7391,-2.7388,-2.7428,-2.7425,-2.7448,-2.7454,-2.7452,-2.743,-2.7464,-2.7476,-2.757,-2.7637,-2.7507,-2.7513,-2.7819,-2.7827,-2.7833,-2.7938,0,0,0,0,0,0,-2.729,-2.731,-2.7358,-2.7378,-2.7395,-2.7523,-2.7432,-2.743,-2.746,-2.7451,-2.7477,-2.7477,-2.7461,-2.7561,-2.7577,-2.7644,-2.7519,-2.7813,-2.7823,-2.7831,-2.7928,-2.7948,-2.7964,0,0,0,0,0,-2.7284,-2.7385,-2.7361,-2.7377,-2.7454,-2.7527,-2.7537,-2.7517,-2.7465,-2.7514,-2.7517,-2.7476,-2.7627,-2.7571,-2.7588,-2.7658,-2.7809,-2.782,-2.783,-2.792,-2.7944,-2.7964,0,0,0,0,0,0,-2.7374,-2.7387,-2.736,-2.7471,-2.7499,-2.7514,-2.7574,-2.7542,-2.7585,-2.7575,-2.7548,-2.7555,-2.7655,-2.7666,-2.7603,-2.7782,-2.7709,-2.7724,-2.7772,-2.7794,-2.7812,-2.7808,-2.7524,0,0,0,0,0,-2.7407,-2.7464,-2.7473,-2.757,-2.7585,-2.7577,-2.7608,-2.759,-2.7618,-2.7629,-2.764,-2.7669,-2.7722,-2.7759,-2.7808,-2.7929,-2.7934,-2.7986,-2.8003,-2.8018,-2.8032,-2.8097,-2.8121,-2.787,-2.787,-2.787,0,0,-2.7475,-2.7489,-2.7527,-2.7588,-2.7607,-2.7669,-2.7588,-2.7656,-2.7701,-2.764,-2.773,-2.7738,-2.7769,-2.7877,-2.7925,-2.7889,-2.8101,-2.8031,-2.8043,-2.8049,-2.8111,-2.8134,-2.8155,-2.7878,-2.7876,-2.7875,0,0,-2.7631,-2.7647,-2.773,-2.7751,-2.7781,-2.7775,-2.7795,-2.7815,-2.7819,-2.7908,-2.7864,-2.7917,-2.801,-2.8034,-2.8059,-2.8224,-2.8188,-2.8241,-2.8335,-2.8399,-2.8419,-2.8436,-2.8497,-2.8518,-2.8254,-2.8254,-2.8254,0,-2.7713,-2.7802,-2.7777,-2.7848,-2.7877,-2.7823,-2.7908,-2.7929,-2.7974,-2.7996,-2.7954,-2.807,-2.8087,-2.8201,-2.8241,-2.8262,-2.8285,-2.8239,-2.8418,-2.8435,-2.8451,-2.8508,-2.8531,-2.826,-2.826,-2.8259,-2.8258,0,-2.7902,-2.7965,-2.8028,-2.8073,-2.8108,-2.8186,-2.8173,-2.8212,-2.8191,-2.819,-2.8282,-2.83,-2.8353,-2.8378,-2.8358,-2.8489,-2.8466,-2.8422,-2.8348,-2.8481,-2.8535,-2.8557,-2.8269,-2.8267,-2.8265,-2.8264,0,0,-2.8118,-2.8147,-2.8171,-2.8191,-2.8219,-2.8268,-2.8343,-2.8395,-2.8429,-2.8462,-2.8525,-2.8605,-2.8564,-2.8592,-2.8574,-2.863,-2.8762,-2.8579,-2.8579,-2.8614,-2.891,-2.8944,-2.897,-2.8738,-2.8742,-2.8745,-2.8908,0,-2.8275,-2.8405,-2.8385,-2.8511,-2.8569,-2.8519,-2.8585,-2.861,-2.8611,-2.8662,-2.8662,-2.872,-2.8661,-2.8678,-2.8731,-2.8735,-2.8821,-2.8722,-2.8798,-2.8801,-2.8794,-2.8998,-2.9035,-2.9187,-2.8928,-2.8932,-2.8934,0,-2.8476,-2.8516,-2.8649,-2.8669,-2.8692,-2.8752,-2.8798,-2.8846,-2.8874,-2.8871,-2.8902,-2.8873,-2.895,-2.8874,-2.8979,-2.8912,-2.8942,-2.8948,-2.8954,-2.8961,-2.8877,-2.9013,-2.9235,-2.9259,-2.8967,-2.8964,-2.8962,0,-2.8623,-2.8709,-2.88,-2.8818,-2.8844,-2.8887,-2.89,-2.8923,-2.8955,-2.8995,-2.9016,-2.9065,-2.9092,-2.913,-2.9116,-2.9062,-2.9225,-2.9147,-2.9226,-2.9226,-2.9264,-2.9262,-2.9496,-2.928,-2.928,-2.9279,-2.9279,0,-2.8802,-2.8885,-2.8866,-2.8922,-2.9014,-2.8989,-2.9081,-2.9088,-2.9109,-2.9166,-2.9125,-2.918,-2.9157,-2.921,-2.9199,-2.9289,-2.9301,-2.9302,-2.9298,-2.9306,-2.9307,-2.9327,-2.9316,-2.9285,-2.9284,-2.9283,-2.9282,0,-2.8982,-2.8972,-2.9068,-2.9084,-2.909,-2.9157,-2.9171,-2.9224,-2.9221,-2.9294,-2.9309,-2.9306,-2.9366,-2.9355,-2.9422,-2.9415,-2.9528,-2.951,-2.9519,-2.9515,-2.9595,-2.9588,-2.9852,-2.9885,-2.9646,-2.9648,-2.965,0,-2.9098,-2.9161,-2.9183,-2.9218,-2.9234,-2.9291,-2.9323,-2.9301,-2.9337,-2.9374,-2.9423,-2.9479,-2.9524,-2.9623,-2.9627,-2.9678,-2.9663,-2.9751,-2.967,-2.9677,-2.9666,-2.9663,-2.967,-2.9768,-2.9771,-2.9773,-2.9775,0,-2.9305,-2.9297,-2.9345,-2.9393,-2.9433,-2.9469,-2.9501,-2.9532,-2.9513,-2.9556,-2.9617,-2.9651,-2.9719,-2.9777,-2.9824,-2.9838,-2.9805,-2.98,-2.9821,-2.9831,-2.9834,-2.9835,-2.9565,-2.9795,-2.9793,-2.9791,-2.979,-2.9789,-2.9457,-2.9511,-2.9536,-2.9591,-2.9613,-2.9644,-2.9695,-2.9699,-2.9749,-2.9803,-2.9786,-2.9856,-2.9883,-2.9944,-2.9963,-3.0017,-2.9985,-3.0015,-3.0023,-3.0031,-3.0042,-2.9824,-3.0026,-3.0025,-3.0025,-3.0024,-3.0024,0,-2.9664,-2.9677,-2.9728,-2.9775,-2.9819,-2.9781,-2.9815,-2.9855,-2.9917,-2.9944,-2.9988,-3.0059,-3.0115,-3.0123,-3.0175,-3.0218,-3.0204,-3.0233,-3.023,-3.0234,-3.0067,-3.0044,-3.0243,-3.0243,-3.0243,-3.0243,-3.0243,-3.0243,-2.9777,-2.9866,-2.9861,-2.9962,-2.9974,-3.0042,-3.0065,-3.0094,-3.0115,-3.0196,-3.0242,-3.0246,-3.0266,-3.032,-3.037,-3.037,-3.0393,-3.0428,-3.0423,-3.0268,-3.0246,-3.0225,-3.0204,-3.0433,-3.0433,-3.0586,-3.0587,-3.0588]},{"header":{"parameterUnit":"m.s-1","parameterCategory":1,"la1":30.2991,"la2":30.254,"lo1":-89.0895,"lo2":-89.0444,"dx":0.0017,"dy":0.0017,"nx":28,"ny":28,"refTime":"2022-11-08T09:00:00:Z","depth":0,"parameterNumber":3,"parameterNumberName":"V-component_of_WINDS"},"data":[0,0,0,0,0,0,0,0,0,0,0,0,0,0,0,0,0,0,0,0,0,0,0,0,0,0,0,0,0,0,0,0,0,0,0,0,0,0,0,0,0,0,0,0,0,0,0,0,0,0,0,0,0,0,0,0,0,0,-2.5561,-2.5561,0,-2.5576,-2.5576,-2.5576,-2.5548,-2.5547,-2.5546,-2.5545,-2.5559,-2.556,-2.5561,0,0,0,0,0,0,0,0,0,0,0,0,0,-2.5506,-2.5507,-2.5561,-2.5561,-2.5561,-2.5575,-2.5576,-2.5576,-2.5548,-2.5547,-2.5545,-2.5544,-2.5558,-2.556,-2.5561,0,0,0,0,0,0,0,0,0,0,0,0,0,-2.5526,-2.5508,-2.5561,-2.5549,-2.5548,-2.5575,-2.5576,-2.5576,-2.5548,-2.5547,-2.5545,-2.5544,-2.5558,-2.556,-2.5561,-2.5601,0,0,-2.5567,-2.5568,0,0,0,0,0,0,0,0,-2.5525,-2.5528,-2.555,-2.555,-2.5549,-2.5558,-2.5561,-2.5584,-2.5548,-2.5548,-2.5545,-2.5543,-2.556,-2.5561,-2.5567,-2.5601,-2.5602,-2.5567,-2.5568,-2.5569,-2.557,0,0,0,0,0,0,0,-2.5524,-2.5528,-2.5567,-2.5551,-2.555,-2.5542,-2.5543,-2.5566,-2.5561,-2.5548,-2.5546,-2.5548,-2.5559,-2.5565,-2.5567,-2.5602,-2.5567,-2.5569,-2.557,-2.5571,-2.5668,-2.567,0,0,0,0,0,0,-2.5524,-2.5527,-2.5566,-2.5567,-2.5533,-2.5544,-2.5546,-2.5557,-2.5561,-2.556,-2.5549,-2.5547,-2.5563,-2.5565,-2.5567,-2.5613,-2.5569,-2.5571,-2.5572,-2.5667,-2.5669,-2.567,0,0,0,0,0,0,-2.5523,-2.5528,-2.5565,-2.5546,-2.555,-2.5547,-2.5559,-2.5558,-2.5564,-2.5562,-2.5561,-2.5557,-2.5562,-2.5565,-2.5592,-2.5613,-2.5572,-2.5573,-2.5665,-2.5667,-2.5669,-2.5705,0,0,0,0,0,0,-2.5522,-2.5528,-2.5543,-2.5547,-2.5552,-2.5591,-2.556,-2.5559,-2.5567,-2.5564,-2.5569,-2.5568,-2.5561,-2.559,-2.5594,-2.5615,-2.5575,-2.5663,-2.5666,-2.5669,-2.5702,-2.5708,-2.5714,0,0,0,0,0,-2.552,-2.5553,-2.5544,-2.5549,-2.5571,-2.5592,-2.5595,-2.5586,-2.5569,-2.5584,-2.5583,-2.5568,-2.561,-2.5593,-2.5598,-2.5619,-2.5662,-2.5665,-2.5669,-2.57,-2.5707,-2.5714,0,0,0,0,0,0,-2.5552,-2.5553,-2.5544,-2.5579,-2.5586,-2.5588,-2.5606,-2.5595,-2.5606,-2.5603,-2.5591,-2.5592,-2.5622,-2.5623,-2.5604,-2.5657,-2.5633,-2.5638,-2.5655,-2.5662,-2.5668,-2.5667,-2.5576,0,0,0,0,0,-2.5563,-2.5581,-2.5581,-2.5612,-2.5615,-2.561,-2.5619,-2.5612,-2.5618,-2.5621,-2.5622,-2.5628,-2.5643,-2.5653,-2.5666,-2.5702,-2.5702,-2.5719,-2.5725,-2.573,-2.5734,-2.5752,-2.5759,-2.5681,-2.5681,-2.5681,0,0,-2.5586,-2.5589,-2.5601,-2.5618,-2.5622,-2.564,-2.5613,-2.5633,-2.5646,-2.5624,-2.565,-2.5651,-2.5657,-2.5689,-2.5703,-2.5691,-2.5755,-2.5734,-2.5738,-2.5739,-2.5756,-2.5764,-2.577,-2.5684,-2.5683,-2.5683,0,0,-2.5637,-2.5642,-2.5667,-2.5672,-2.5679,-2.5676,-2.5682,-2.5685,-2.5685,-2.5711,-2.5694,-2.5709,-2.5735,-2.574,-2.5746,-2.5798,-2.5784,-2.5802,-2.5832,-2.585,-2.5857,-2.5862,-2.588,-2.5887,-2.5806,-2.5806,-2.5806,0,-2.5665,-2.5692,-2.5682,-2.5703,-2.5711,-2.5692,-2.5717,-2.5722,-2.5733,-2.5739,-2.5725,-2.5756,-2.5759,-2.5792,-2.5804,-2.581,-2.5816,-2.5802,-2.5857,-2.5862,-2.5867,-2.5884,-2.5891,-2.5808,-2.5808,-2.5808,-2.5808,0,-2.5725,-2.5744,-2.5764,-2.5775,-2.5785,-2.5808,-2.5801,-2.5812,-2.5804,-2.5801,-2.5827,-2.583,-2.5843,-2.585,-2.5842,-2.5881,-2.5874,-2.5859,-2.5834,-2.5876,-2.5892,-2.5899,-2.5811,-2.5811,-2.581,-2.5809,0,0,-2.5798,-2.5802,-2.581,-2.5814,-2.582,-2.5834,-2.5856,-2.5869,-2.5878,-2.5886,-2.5904,-2.5926,-2.5911,-2.5918,-2.591,-2.5926,-2.5966,-2.5909,-2.5909,-2.5919,-2.6009,-2.602,-2.6028,-2.5957,-2.5959,-2.596,-2.6008,0,-2.5848,-2.5886,-2.5877,-2.5915,-2.5932,-2.5913,-2.5932,-2.5937,-2.5935,-2.5948,-2.5946,-2.5961,-2.5942,-2.5945,-2.596,-2.5958,-2.5984,-2.5955,-2.5973,-2.5974,-2.5972,-2.6036,-2.6048,-2.6093,-2.6014,-2.6015,-2.6016,0,-2.5912,-2.5922,-2.5961,-2.5964,-2.597,-2.5988,-2.5998,-2.6012,-2.6017,-2.6014,-2.6021,-2.601,-2.6031,-2.6006,-2.6035,-2.6015,-2.6022,-2.6022,-2.6023,-2.6024,-2.5997,-2.6038,-2.6108,-2.6114,-2.6026,-2.6025,-2.6024,0,-2.596,-2.5984,-2.601,-2.6014,-2.6018,-2.603,-2.6032,-2.6036,-2.6044,-2.6053,-2.6058,-2.607,-2.6076,-2.6085,-2.6077,-2.606,-2.6106,-2.6081,-2.6104,-2.6104,-2.6114,-2.6114,-2.6185,-2.6119,-2.6119,-2.6119,-2.6119,0,-2.6017,-2.6041,-2.6031,-2.6047,-2.6074,-2.6063,-2.609,-2.6089,-2.6093,-2.6108,-2.6093,-2.6107,-2.6096,-2.6109,-2.6103,-2.6126,-2.6129,-2.6127,-2.6125,-2.6129,-2.6129,-2.6133,-2.6129,-2.6121,-2.612,-2.612,-2.612,0,-2.6075,-2.6069,-2.6097,-2.6098,-2.6098,-2.6118,-2.6118,-2.6133,-2.6129,-2.6148,-2.6152,-2.6147,-2.6162,-2.6154,-2.617,-2.6165,-2.6196,-2.619,-2.6195,-2.6193,-2.6216,-2.6213,-2.6292,-2.6302,-2.623,-2.6231,-2.6231,0,-2.6112,-2.613,-2.6133,-2.6142,-2.6145,-2.616,-2.6168,-2.6158,-2.6167,-2.6173,-2.6187,-2.62,-2.6211,-2.6235,-2.6232,-2.6243,-2.6237,-2.6264,-2.6239,-2.6241,-2.6237,-2.6236,-2.6237,-2.6269,-2.627,-2.6271,-2.6271,0,-2.6177,-2.6173,-2.6186,-2.6197,-2.6207,-2.6215,-2.6222,-2.623,-2.622,-2.6231,-2.6246,-2.6254,-2.6269,-2.6282,-2.6292,-2.6293,-2.6281,-2.6279,-2.6285,-2.6288,-2.629,-2.6289,-2.6208,-2.6277,-2.6277,-2.6276,-2.6276,-2.6276,-2.6225,-2.624,-2.6244,-2.6258,-2.6262,-2.6269,-2.6283,-2.6281,-2.6293,-2.6305,-2.6298,-2.6315,-2.6319,-2.6331,-2.6334,-2.6347,-2.6336,-2.6344,-2.6346,-2.6349,-2.6351,-2.6288,-2.6348,-2.6348,-2.6348,-2.6348,-2.6348,0,-2.6289,-2.6291,-2.6304,-2.6314,-2.6325,-2.6312,-2.6318,-2.6328,-2.6343,-2.6348,-2.6358,-2.6375,-2.6388,-2.6385,-2.6397,-2.6407,-2.6402,-2.6411,-2.641,-2.641,-2.6361,-2.6354,-2.6415,-2.6415,-2.6415,-2.6415,-2.6415,-2.6415,-2.6324,-2.6349,-2.6345,-2.6371,-2.6372,-2.6389,-2.6394,-2.6399,-2.6403,-2.6422,-2.6433,-2.6431,-2.6433,-2.6444,-2.6455,-2.6454,-2.6458,-2.6469,-2.6466,-2.642,-2.6414,-2.6407,-2.6401,-2.6471,-2.6471,-2.6514,-2.6515,-2.6515]}]]